EW6866 Weather Reports


Display with metric or nautical units.
time (UTC)temp
F
wind
direction
speed
MPH
gust
MPH
rain 1hr
in
rain 24hr
in
rain mn
in
humidity
%
barometer
mb
20260508081504 49 0 0.0 0.0 0.00 0.56 0.00 97 1012.7
20260508080025 50 0 0.0 0.0 0.00 0.56 0.00 96 1012.6
20260508074505 50 0 0.0 0.0 0.00 0.57 0.00 96 1012.4
20260508073005 51 127 0.0 1.0 0.00 0.57 0.00 97 1012.4
20260508071505 51 117 0.0 1.0 0.00 0.58 0.00 97 1012.6
20260508070005 51 0 0.0 0.0 0.00 0.59 0.00 97 1012.4
20260508064506 51 0 0.0 0.0 0.00 0.62 0.00 96 1012.1
20260508063005 51 119 0.0 2.0 0.00 0.62 0.00 97 1012.1
20260508061505 50 143 0.0 1.0 0.00 0.62 0.00 96 1011.9
20260508060005 50 0 0.0 0.0 0.00 0.62 0.00 96 1011.8
20260508054505 50 0 0.0 0.0 0.00 0.62 0.00 96 1011.7
20260508053005 51 0 0.0 0.0 0.00 0.62 0.00 96 1011.6
20260508051505 51 0 0.0 0.0 0.00 0.62 0.00 96 1011.7
20260508050026 51 0 0.0 0.0 0.00 0.62 0.00 96 1011.5
20260508044504 51 0 0.0 0.0 0.00 0.62 0.00 96 1011.4
20260508043005 51 0 0.0 0.0 0.00 0.62 0.00 96 1011.4
20260508041505 51 0 0.0 0.0 0.00 0.62 0.00 96 1011.1
20260508040006 51 127 0.0 1.0 0.00 0.62 0.00 95 1011.0
20260508034505 52 0 0.0 0.0 0.00 0.62 0.62 95 1010.8
20260508033005 52 143 0.0 1.0 0.00 0.62 0.62 95 1010.6
20260508031506 52 0 0.0 0.0 0.00 0.62 0.62 95 1010.6
20260508030005 52 0 0.0 0.0 0.00 0.62 0.62 95 1010.7
20260508024505 52 0 0.0 0.0 0.00 0.62 0.62 95 1010.6
20260508023004 52 0 0.0 0.0 0.00 0.62 0.62 95 1010.7
20260508021526 52 0 0.0 0.0 0.00 0.62 0.62 95 1010.8
20260508020005 52 0 0.0 0.0 0.00 0.62 0.62 95 1010.2
20260508014526 52 117 0.0 1.0 0.00 0.62 0.62 95 1010.2
20260508013005 52 0 0.0 0.0 0.00 0.62 0.62 95 1010.2
20260508011504 52 91 0.0 1.0 0.00 0.62 0.62 95 1009.9
20260508010005 52 0 0.0 0.0 0.00 0.62 0.62 94 1010.0
20260508004526 52 0 0.0 0.0 0.00 0.62 0.62 94 1009.5
20260508003025 52 68 0.0 1.0 0.00 0.62 0.62 94 1009.3
20260508001505 52 75 0.0 1.0 0.00 0.62 0.62 94 1009.2
20260508000005 52 67 0.0 1.0 0.00 0.62 0.62 93 1008.9
20260507234504 52 76 0.0 1.0 0.00 0.62 0.62 94 1009.3
20260507233005 52 117 0.0 2.0 0.00 0.62 0.62 94 1009.4
20260507231526 52 96 0.0 1.0 0.00 0.62 0.62 94 1009.3
20260507230005 52 82 0.0 3.0 0.00 0.62 0.62 94 1009.2
20260507224525 52 69 0.0 3.0 0.00 0.62 0.62 96 1008.9
20260507223005 53 65 0.0 4.0 0.00 0.62 0.62 96 1008.7
20260507221505 52 74 0.0 3.0 0.00 0.62 0.62 96 1008.8
20260507220005 53 75 0.0 4.0 0.01 0.62 0.62 96 1008.4
20260507214504 53 72 0.0 3.0 0.01 0.62 0.62 96 1008.0
20260507213004 53 72 0.0 3.0 0.02 0.62 0.62 96 1007.9
20260507211505 54 70 0.0 2.0 0.03 0.62 0.62 97 1008.2
20260507210004 54 59 0.0 4.0 0.03 0.61 0.61 97 1008.1
20260507204525 54 65 1.0 3.0 0.03 0.61 0.61 97 1007.7
20260507203004 54 66 0.0 2.0 0.02 0.60 0.60 97 1007.6
20260507201505 54 68 0.0 3.0 0.01 0.59 0.59 96 1007.6
20260507200025 54 68 0.0 2.0 0.01 0.58 0.58 97 1007.8
20260507194504 54 58 0.0 3.0 0.02 0.58 0.58 97 1008.0
20260507193004 54 58 0.0 3.0 0.02 0.58 0.58 97 1007.5
20260507191504 55 67 0.0 4.0 0.02 0.58 0.58 96 1007.6
20260507190006 55 60 0.0 3.0 0.01 0.57 0.57 96 1007.7
20260507184504 55 61 0.0 6.0 0.00 0.56 0.56 96 1007.9
20260507183004 55 277 0.0 3.0 0.01 0.56 0.56 96 1008.1
20260507181525 55 61 1.0 4.0 0.03 0.56 0.56 97 1008.5
20260507180005 55 59 2.0 9.0 0.06 0.56 0.56 96 1008.5
20260507174504 56 59 1.0 6.0 0.11 0.56 0.56 97 1008.6
20260507173005 56 64 1.0 5.0 0.18 0.55 0.55 97 1008.7
20260507171504 56 60 1.0 6.0 0.33 0.53 0.53 96 1009.1
20260507170026 56 61 2.0 6.0 0.34 0.50 0.50 96 1009.4
20260507164504 56 61 2.0 9.0 0.32 0.45 0.45 95 1009.2
20260507163025 58 66 2.0 4.0 0.27 0.36 0.36 96 1009.6
20260507161504 58 63 2.0 8.0 0.11 0.20 0.20 95 1009.4
20260507160005 60 67 1.0 5.0 0.07 0.16 0.16 93 1009.2
20260507154525 64 76 1.0 4.0 0.04 0.13 0.13 93 1008.7
20260507153004 69 134 0.0 1.0 0.00 0.09 0.09 97 1008.3
20260507151504 69 0 0.0 0.0 0.00 0.09 0.09 97 1008.1
20260507150005 69 0 0.0 0.0 0.00 0.09 0.09 97 1008.3
20260507144504 69 132 0.0 1.0 0.00 0.09 0.09 97 1007.9
20260507143004 69 248 0.0 2.0 0.00 0.09 0.09 97 1008.3
20260507141503 69 224 0.0 3.0 0.00 0.09 0.09 97 1008.3
20260507140004 68 158 0.0 2.0 0.00 0.09 0.09 97 1008.5
20260507134504 68 226 0.0 4.0 0.00 0.09 0.09 97 1008.6
20260507133026 68 177 0.0 3.0 0.00 0.09 0.09 97 1008.7
20260507131504 68 186 0.0 1.0 0.01 0.09 0.09 97 1008.8
20260507130025 68 143 0.0 4.0 0.02 0.09 0.09 97 1009.0
20260507124504 67 247 0.0 2.0 0.02 0.09 0.09 97 1009.2
20260507123004 67 230 0.0 4.0 0.02 0.09 0.09 97 1009.1
20260507121525 67 189 0.0 3.0 0.01 0.08 0.08 97 1009.3
20260507120005 67 174 0.0 3.0 0.00 0.07 0.07 97 1009.4
20260507114505 67 169 0.0 2.0 0.00 0.07 0.07 97 1009.5
20260507113004 67 220 0.0 4.0 0.01 0.07 0.07 97 1009.6
20260507111506 67 227 0.0 4.0 0.01 0.07 0.07 97 1009.4
20260507110005 66 148 0.0 3.0 0.01 0.07 0.07 97 1009.2
20260507104525 66 253 0.0 6.0 0.01 0.07 0.07 97 1009.2
20260507103004 66 139 0.0 2.0 0.00 0.06 0.06 97 1009.0
20260507101503 66 179 0.0 3.0 0.00 0.06 0.06 96 1009.2
20260507100025 66 146 0.0 3.0 0.00 0.06 0.06 96 1009.2
20260507094525 66 132 0.0 1.0 0.00 0.06 0.06 96 1009.0
20260507093004 66 187 0.0 2.0 0.00 0.06 0.06 96 1009.0
20260507091503 66 173 0.0 1.0 0.00 0.06 0.06 96 1009.0
20260507090004 66 142 0.0 1.0 0.00 0.06 0.06 95 1008.9
20260507084504 66 162 0.0 2.0 0.01 0.06 0.06 95 1009.1
20260507083004 66 199 0.0 3.0 0.01 0.06 0.06 95 1009.4